La Junta, CO

10:31 PM MDT on March 24, 2017 (GMT -0600)
La Junta Municipal

Weather History for KLHX - June, 2013

Change the Weather History Date:

Monday, June 24, 2013

  Actual Average Record
Temperature  
Mean Temperature 81 °F 75 °F  
Max Temperature 97 °F 91 °F 110 °F (2012)
Min Temperature 64 °F 60 °F 50 °F (1993)
Degree Days  
Heating Degree Days 0 0  
Month to date heating degree days 11 15  
Since 1 June heating degree days 11 15  
Since 1 July heating degree days 5085 5270  
Cooling Degree Days 16 11  
Month to date cooling degree days 282 177  
Year to date cooling degree days 420 250  
Since 1 June cooling degree days 282 177  
Growing Degree Days 30 (Base 50)    
Moisture  
Dew Point 39 °F    
Average Humidity 33    
Maximum Humidity 60    
Minimum Humidity 5    
Precipitation  
Precipitation 0.00 in 0.04 in 0.96 in (1979)
Month to date precipitation 2.00 1.09  
Year to date precipitation 2.67  
Sea Level Pressure  
Sea Level Pressure 29.63 in    
Wind  
Wind Speed 11 mph (West)    
Max Wind Speed 29 mph    
Max Gust Speed 35 mph    
Visibility 10 miles    
Events      
T = Trace of Precipitation, MM = Missing Value Source: NWS Daily Summary

Daily Weather History Graph

Daily Weather History Graph

Search for Another Location

Airport or City:

Trip Planner

Search our weather history database for the weather conditions in past years. The results will help you decide how hot, cold, wet, or windy it might be!

Date:

Astronomy

Jun. 24, 2013 Rise Set
Actual Time 5:32 AM MDT 8:20 PM MDT
Civil Twilight 5:00 AM MDT 8:52 PM MDT
Nautical Twilight 4:21 AM MDT 9:31 PM MDT
Astronomical Twilight 3:36 AM MDT 10:16 PM MDT
Moon 9:27 PM MDT (6/24) 7:01 AM MDT (6/24)
Length of Visible Light 15h 51m
Length of Day
14h 48m
Full, 97% of the Moon is Illuminated
Jun 24
Full
Jun 29
Last Quarter
Jul 8
New
Jul 15
First Quarter
Jul 22
Full

Hourly Weather History & Observations

Time (MDT) Temp. Dew Point Humidity Pressure Visibility Wind Dir Wind Speed Gust Speed Precip Events Conditions
12:53 AM 78.1 °F 55.0 °F 45% 29.56 in 10.0 mi North - - N/A   Clear
1:53 AM 72.0 °F 55.9 °F 57% 29.60 in 10.0 mi Calm Calm - N/A   Clear
2:53 AM 66.0 °F 51.1 °F 59% 29.64 in 10.0 mi NNE 20.7 mph 29.9 mph N/A   Clear
3:53 AM 64.9 °F 50.0 °F 58% 29.66 in 10.0 mi NE 21.9 mph 28.8 mph N/A   Clear
4:53 AM 64.9 °F 48.9 °F 56% 29.68 in 10.0 mi NE 18.4 mph 26.5 mph N/A   Clear
5:53 AM 64.0 °F 48.9 °F 58% 29.72 in 10.0 mi NE 4.6 mph - N/A   Clear
6:53 AM 64.0 °F 50.0 °F 60% 29.74 in 10.0 mi WNW 9.2 mph - N/A   Clear
7:53 AM 68.0 °F 50.0 °F 52% 29.73 in 10.0 mi West 3.5 mph - N/A   Clear
8:53 AM 70.0 °F 50.0 °F 49% 29.75 in 10.0 mi West 11.5 mph - N/A   Clear
9:53 AM 75.0 °F 50.0 °F 41% 29.74 in 10.0 mi West 11.5 mph 18.4 mph N/A   Clear
10:53 AM 77.0 °F 51.1 °F 40% 29.73 in 10.0 mi West 13.8 mph 21.9 mph N/A   Clear
11:53 AM 80.1 °F 51.1 °F 36% 29.71 in 10.0 mi West 9.2 mph - N/A   Clear
12:53 PM 88.0 °F 48.0 °F 25% 29.65 in 10.0 mi WNW 13.8 mph - N/A   Clear
1:53 PM 91.9 °F 33.1 °F 12% 29.62 in 10.0 mi WSW 11.5 mph - N/A   Clear
2:53 PM 93.0 °F 32.0 °F 12% 29.59 in 10.0 mi Variable 4.6 mph - N/A   Clear
3:53 PM 96.1 °F 30.9 °F 10% 29.55 in 10.0 mi East 8.1 mph - N/A   Clear
4:53 PM 95.0 °F 27.0 °F 9% 29.54 in 10.0 mi East 6.9 mph - N/A   Clear
5:53 PM 95.0 °F 33.1 °F 11% 29.52 in 10.0 mi East 12.7 mph - N/A   Clear
6:53 PM 91.0 °F 36.0 °F 14% 29.52 in 10.0 mi East 11.5 mph - N/A   Clear
7:53 PM 87.1 °F 39.0 °F 18% 29.54 in 10.0 mi SE 8.1 mph - N/A   Clear
8:53 PM 86.0 °F 19.9 °F 9% 29.55 in 10.0 mi WSW 9.2 mph - N/A   Clear
9:53 PM 84.0 °F 12.0 °F 7% 29.56 in 10.0 mi WSW 13.8 mph - N/A   Clear
10:53 PM 87.1 °F 7.0 °F 5% 29.56 in 10.0 mi WSW 20.7 mph 29.9 mph N/A   Clear
11:53 PM 82.9 °F 10.0 °F 6% 29.57 in 10.0 mi WSW 16.1 mph - N/A   Clear